• In Hungary
  • List of Countries
  • For 7 days
  • Water Temperature
  • Satellite Maps
  • Weather Map
  • News
  • Weather Widgets
  • user-avatar
    Login

    Hourly Weather Sliven

    Today, 21 October, Saturday

    Time Temperature Precipitation Wind Pressure Humidity
    00:00 +16°C° 0 mm 1 mps 734 mmHg 47%
    01:00 +16°C° 0 mm 1 mps 734 mmHg 48%
    02:00 +16°C° 0 mm 1 mps 733 mmHg 50%
    03:00 +15°C° 0 mm 1 mps 733 mmHg 51%
    04:00 +15°C° 0 mm 1 mps 733 mmHg 51%
    05:00 +15°C° 0 mm 1 mps 733 mmHg 51%
    06:00 +15°C° 0 mm 1 mps 733 mmHg 50%
    07:00 +16°C° 0 mm 1 mps 733 mmHg 49%
    08:00 +18°C° 0 mm 1 mps 733 mmHg 46%
    09:00 +20°C° 0 mm 1 mps 734 mmHg 41%
    10:00 +22°C° 0 mm 1 mps 734 mmHg 36%
    11:00 +24°C° 0 mm 1 mps 734 mmHg 31%
    12:00 +25°C° 0 mm 1 mps 734 mmHg 30%
    13:00 +25°C° 0 mm 2 mps 733 mmHg 28%
    14:00 +26°C° 0 mm 2 mps 733 mmHg 27%
    15:00 +25°C° 0 mm 1 mps 733 mmHg 30%
    16:00 +23°C° 0 mm 1 mps 732 mmHg 34%
    17:00 +22°C° 0 mm 1 mps 732 mmHg 37%
    18:00 +21°C° 0 mm 1 mps 732 mmHg 40%
    19:00 +20°C° 0 mm 1 mps 732 mmHg 42%
    20:00 +19°C° 0 mm 1 mps 732 mmHg 44%
    21:00 +18°C° 0 mm 1 mps 732 mmHg 46%
    22:00 +18°C° 0 mm 1 mps 731 mmHg 47%
    23:00 +18°C° 0 mm 1 mps 731 mmHg 48%

    Tomorrow, 22 October, Sunday

    Time Temperature Precipitation Wind Pressure Humidity
    00:00 +16°C° 0 mm 1 mps 731 mmHg 49%
    01:00 +16°C° 0 mm 1 mps 731 mmHg 50%
    02:00 +16°C° 0 mm 1 mps 731 mmHg 51%
    03:00 +15°C° 0 mm 1 mps 731 mmHg 53%
    04:00 +15°C° 0 mm 2 mps 730 mmHg 55%
    05:00 +15°C° 0 mm 2 mps 730 mmHg 58%
    06:00 +15°C° 0 mm 2 mps 731 mmHg 57%
    07:00 +15°C° 0 mm 2 mps 731 mmHg 57%
    08:00 +16°C° 0 mm 2 mps 731 mmHg 56%
    09:00 +17°C° 0 mm 2 mps 732 mmHg 51%
    10:00 +19°C° 0 mm 2 mps 732 mmHg 46%
    11:00 +20°C° 0 mm 2 mps 732 mmHg 40%
    12:00 +21°C° 0 mm 2 mps 732 mmHg 39%
    13:00 +21°C° 0 mm 2 mps 732 mmHg 37%
    14:00 +23°C° 0 mm 1 mps 732 mmHg 35%
    15:00 +21°C° 0 mm 2 mps 731 mmHg 39%
    16:00 +20°C° 0 mm 2 mps 731 mmHg 42%
    17:00 +19°C° 0 mm 2 mps 731 mmHg 46%
    18:00 +18°C° 0 mm 2 mps 731 mmHg 51%
    19:00 +17°C° 0 mm 2 mps 731 mmHg 57%
    20:00 +14°C° 0 mm 3 mps 732 mmHg 62%
    21:00 +14°C° 0 mm 3 mps 731 mmHg 66%
    22:00 +13°C° 0 mm 3 mps 731 mmHg 70%
    23:00 +13°C° 0 mm 3 mps 731 mmHg 74%

    Day after tomorrow, 23 October, Monday

    Time Temperature Precipitation Wind Pressure Humidity
    00:00 +12°C° 0 mm 3 mps 731 mmHg 77%
    01:00 +12°C° 0 mm 3 mps 731 mmHg 80%
    02:00 +12°C° 0 mm 3 mps 731 mmHg 83%
    03:00 +12°C° 0 mm 3 mps 730 mmHg 84%
    04:00 +12°C° 0 mm 3 mps 730 mmHg 86%
    05:00 +11°C° 0 mm 3 mps 729 mmHg 87%
    06:00 +12°C° 0 mm 3 mps 729 mmHg 86%
    07:00 +12°C° 0 mm 3 mps 729 mmHg 85%
    08:00 +13°C° 0 mm 3 mps 729 mmHg 83%
    09:00 +14°C° 0 mm 4 mps 728 mmHg 77%
    10:00 +15°C° 0 mm 4 mps 728 mmHg 71%
    11:00 +17°C° 0 mm 4 mps 728 mmHg 65%
    12:00 +18°C° 0 mm 4 mps 727 mmHg 62%
    13:00 +19°C° 0 mm 4 mps 727 mmHg 59%
    14:00 +20°C° 0 mm 4 mps 726 mmHg 56%
    15:00 +19°C° 0 mm 4 mps 726 mmHg 60%
    16:00 +18°C° 0 mm 4 mps 725 mmHg 64%
    17:00 +18°C° 0 mm 4 mps 725 mmHg 67%
    18:00 +17°C° 0 mm 4 mps 725 mmHg 72%
    19:00 +15°C° 0 mm 5 mps 725 mmHg 77%
    20:00 +14°C° 0 mm 5 mps 724 mmHg 82%
    21:00 +14°C° 0 mm 5 mps 724 mmHg 83%
    22:00 +14°C° 0 mm 5 mps 724 mmHg 84%
    23:00 +14°C° 0 mm 5 mps 724 mmHg 85%

    24 October, Tuesday

    Time Temperature Precipitation Wind Pressure Humidity
    00:00 +14°C° 0.1 mm 5 mps 723 mmHg 85%
    01:00 +14°C° 0.1 mm 5 mps 723 mmHg 85%
    02:00 +14°C° 0.1 mm 5 mps 723 mmHg 84%
    03:00 +14°C° 0.6 mm 5 mps 723 mmHg 85%
    04:00 +14°C° 0.6 mm 5 mps 723 mmHg 85%
    05:00 +14°C° 0.6 mm 5 mps 723 mmHg 86%
    06:00 +14°C° 1.1 mm 5 mps 723 mmHg 86%
    07:00 +14°C° 1.1 mm 5 mps 723 mmHg 86%
    08:00 +14°C° 1.1 mm 4 mps 723 mmHg 86%
    09:00 +14°C° 0.7 mm 4 mps 724 mmHg 83%
    10:00 +15°C° 0.7 mm 4 mps 724 mmHg 79%
    11:00 +17°C° 0.7 mm 4 mps 724 mmHg 75%
    12:00 +17°C° 0.8 mm 4 mps 724 mmHg 73%
    13:00 +17°C° 0.8 mm 4 mps 724 mmHg 71%
    14:00 +18°C° 0.8 mm 4 mps 725 mmHg 70%
    15:00 +17°C° 1.4 mm 4 mps 725 mmHg 72%
    16:00 +17°C° 1.4 mm 4 mps 725 mmHg 75%
    17:00 +15°C° 1.4 mm 5 mps 725 mmHg 78%
    18:00 +15°C° 1.5 mm 5 mps 726 mmHg 80%
    19:00 +15°C° 1.5 mm 5 mps 726 mmHg 83%
    20:00 +14°C° 1.5 mm 6 mps 727 mmHg 85%
    21:00 +14°C° 2.9 mm 6 mps 727 mmHg 86%
    22:00 +14°C° 2.9 mm 7 mps 728 mmHg 87%
    23:00 +12°C° 2.9 mm 7 mps 728 mmHg 88%

    25 October, Wednesday

    Time Temperature Precipitation Wind Pressure Humidity
    00:00 +12°C° 2.6 mm 7 mps 728 mmHg 87%
    01:00 +11°C° 2.6 mm 7 mps 728 mmHg 86%
    02:00 +11°C° 2.6 mm 8 mps 728 mmHg 85%
    03:00 +10°C° 0.9 mm 8 mps 729 mmHg 84%
    04:00 +9°C° 0.9 mm 8 mps 729 mmHg 83%
    05:00 +9°C° 0.9 mm 8 mps 729 mmHg 82%
    06:00 +7°C° 0.8 mm 8 mps 730 mmHg 81%
    07:00 +6°C° 0.8 mm 8 mps 730 mmHg 80%
    08:00 +5°C° 0.8 mm 8 mps 731 mmHg 78%
    09:00 +5°C° 1.1 mm 8 mps 731 mmHg 78%
    10:00 +4°C° 1.1 mm 8 mps 732 mmHg 77%
    11:00 +2°C° 1.1 mm 8 mps 733 mmHg 77%
    12:00 +2°C° 1.2 mm 8 mps 733 mmHg 78%
    13:00 +3°C° 1.2 mm 7 mps 733 mmHg 79%
    14:00 +3°C° 1.2 mm 7 mps 733 mmHg 80%
    15:00 +2°C° 2.3 mm 6 mps 734 mmHg 82%
    16:00 +2°C° 2.3 mm 6 mps 734 mmHg 83%
    17:00 +2°C° 2.3 mm 5 mps 735 mmHg 84%
    18:00 +2°C° 1.4 mm 5 mps 735 mmHg 84%
    19:00 +2°C° 1.4 mm 6 mps 736 mmHg 84%
    20:00 +2°C° 1.4 mm 6 mps 737 mmHg 84%
    21:00 +1°C° 0.3 mm 6 mps 737 mmHg 84%
    22:00 +1°C° 0.3 mm 6 mps 737 mmHg 83%
    23:00 +1°C° 0.3 mm 6 mps 737 mmHg 82%

    26 October, Thursday

    Time Temperature Precipitation Wind Pressure Humidity
    00:00 +1°C° 0 mm 6 mps 737 mmHg 81%
    01:00 +1°C° 0 mm 5 mps 738 mmHg 81%
    02:00 +1°C° 0 mm 5 mps 738 mmHg 80%
    03:00 0°C° 0 mm 5 mps 738 mmHg 79%
    04:00 0°C° 0 mm 5 mps 738 mmHg 78%
    05:00 0°C° 0 mm 5 mps 738 mmHg 78%
    06:00 0°C° 0 mm 5 mps 739 mmHg 76%
    07:00 0°C° 0 mm 5 mps 739 mmHg 75%
    08:00 0°C° 0 mm 5 mps 740 mmHg 74%
    09:00 +1°C° 0 mm 5 mps 740 mmHg 71%
    10:00 +2°C° 0 mm 5 mps 740 mmHg 69%
    11:00 +3°C° 0 mm 5 mps 741 mmHg 66%
    12:00 +3°C° 0 mm 5 mps 741 mmHg 65%
    13:00 +5°C° 0 mm 5 mps 741 mmHg 64%
    14:00 +6°C° 0 mm 5 mps 740 mmHg 63%
    15:00 +5°C° 0 mm 4 mps 740 mmHg 65%
    16:00 +5°C° 0 mm 3 mps 740 mmHg 67%
    17:00 +4°C° 0 mm 3 mps 740 mmHg 70%
    18:00 +5°C° 0 mm 2 mps 741 mmHg 72%
    19:00 +4°C° 0 mm 2 mps 741 mmHg 74%
    20:00 +3°C° 0 mm 2 mps 741 mmHg 76%
    21:00 +4°C° 0 mm 1 mps 741 mmHg 77%
    22:00 +4°C° 0 mm 1 mps 741 mmHg 77%
    23:00 +4°C° 0 mm 1 mps 741 mmHg 77%
    Show more